User: anonymous   Login
Location: Unspecified
(0.0000°N, 0.0000°E)
Time: 11:37:53
(UTC+02:00)
Language:

AO-40 - Orbit

View from above orbital plane
View from above orbital plane
View from above satellite
View from above satellite

Ground track
Ground track

The orbit data is extracted from the following two-line orbital elements,

1 26609U 00072B   17295.79450465 -.00000311  00000-0  00000+0 0  9991
2 26609   6.6025 196.1605 7923807 173.3191 214.6875  1.25586329 77944
Epoch (UTC): 22 October 2017 19:04:05
Eccentricity: 0.7923807
inclination: 6.6025°
perigee height: 1156 km
apogee height: 58665 km
right ascension of ascending node: 196.1605°
argument of perigee: 173.3191°
revolutions per day: 1.25586329
mean anomaly at epoch: 214.6875°
orbit number at epoch: 7794

The dashed part of the orbit path shows where the satellite is in the earth's shadow,  

DLR